Regional Weather Roundup
Issued by NWS

Home | Current Version | Previous Version | Text Only | Print | Product List | Glossary On
Versions: 1 2 3 4 5 6 7 8 9 10 11 12 13 14 15 16 17 18 19 20 21 22 23 24 25 26 27 28 29 30 31 32 33 34 35 36 37 38 39 40 41 42 43 44 45 46 47 48 49 50
000
ASUS43 KOAX 230210
RWRNE

WEATHER ROUNDUP FOR NEBRASKA
NATIONAL WEATHER SERVICE OMAHA NE
900 PM CDT WED OCT 22 2014

NOTES: SATELLITE DATA IS BEING USED TO AUGMENT CLOUD COVER ABOVE
       12000 FEET.
       "FAIR" INDICATES FEW OR NO CLOUDS BELOW 12,000 FEET WITH NO
       SIGNIFICANT WEATHER AND/OR OBSTRUCTIONS TO VISIBILITY.

  * THESE STATIONS DO NOT REPORT WEATHER SUCH AS RAIN...SNOW OR FOG.

NEZ001>004-019>022-054>056-230300-
NEBRASKA PANHANDLE

CITY           SKY/WX    TMP DP  RH WIND       PRES   REMARKS
SCOTTSBLUFF    CLEAR     56  25  30 S5        30.08R
ALLIANCE       CLEAR     44  30  57 CALM      30.07R
CHADRON        CLEAR     42  33  70 SW3       30.04R
KIMBALL        MOCLDY    51  34  52 CALM      30.11S
SIDNEY         CLOUDY    51  38  60 CALM      30.11R
$$

NEZ057>060-069>072-079>082-230300-
SOUTHWEST NEBRASKA

CITY           SKY/WX    TMP DP  RH WIND       PRES   REMARKS
NORTH PLATTE   CLEAR     51  49  92 NE5       30.06R
IMPERIAL       CLEAR     52  33  48 CALM      30.08R
LEXINGTON      CLEAR     51  49  92 NE7       30.05R
MCCOOK         CLEAR     60  50  69 CALM      30.05R
OGALLALA       MOCLDY    51  38  60 CALM      30.07S
$$

NEZ005>010-023>029-035>040-094-230300-
NORTH CENTRAL NEBRASKA

CITY           SKY/WX    TMP DP  RH WIND       PRES   REMARKS
VALENTINE      CLEAR     50  40  68 CALM      30.04S
AINSWORTH      PTCLDY    47  42  85 CALM      30.05S
BROKEN BOW     PTCLDY    50  48  93 N3        30.05R
O`NEILL        FOG       49  49 100 S3        30.04S VSB 3/4
ORD            FOG       50  49  96 CALM      30.04R VSB 3/4
THEDFORD       CLEAR     50  44  80 CALM      30.08R
$$

NEZ041-046>049-061>064-073>077-083>087-230300-
SOUTH CENTRAL NEBRASKA

CITY           SKY/WX    TMP DP  RH WIND       PRES   REMARKS
GRAND ISLAND   FOG       58  56  93 CALM      30.03S VSB 1/4
AURORA         CLOUDY    61  61 100 S5        30.03S
HASTINGS       CLOUDY    61  57  87 CALM      30.03R
HEBRON         CLOUDY    60  57  89 CALM      30.04R
HOLDREGE       FOG       52  51  95 CALM      30.04R VSB 1/2
KEARNEY *      CLOUDY    54  52  94 CALM      30.04R VSB 1/4
YORK           CLOUDY    63  59  88 S9        30.03S
$$

NEZ011>018-030>034-042>045-230300-
NORTHEAST NEBRASKA

CITY           SKY/WX    TMP DP  RH WIND       PRES   REMARKS
NORFOLK        CLOUDY    59  58  96 SE3       30.03R
ALBION         CLOUDY    57  55  94 NW6       30.04R
BLAIR          HVY RAIN  63  60  90 W8        30.07R
COLUMBUS *     CLOUDY    63  57  82 S6        30.04S
FREMONT        RAIN      62  58  87 SE3       30.04F
TEKAMAH        RAIN      63  60  90 W8        30.03R
WAYNE          CLOUDY    59  58  95 S5        30.04R
$$

NEZ050>053-065>068-078-088>093-230300-
SOUTHEAST NEBRASKA

CITY           SKY/WX    TMP DP  RH WIND       PRES   REMARKS
LINCOLN        LGT RAIN  63  60  90 CALM      30.08R FOG
OMAHA EPPLEY   RAIN      63  61  93 CALM      30.07S FOG
BEATRICE       RAIN      61  59  94 S3        30.05F
FALLS CITY     LGT RAIN  65  56  72 SE10      30.05S
NEBRASKA CITY  CLOUDY    65  54  65 S12G18    30.04S
PLATTSMOUTH    LGT RAIN  62  60  92 N3        30.07S
$$

NEZ044-045-051>053-067-230300-
OMAHA AREA

CITY           SKY/WX    TMP DP  RH WIND       PRES   REMARKS
OMAHA EPPLEY   RAIN      63  61  93 CALM      30.07S FOG
BLAIR          HVY RAIN  63  60  90 W8        30.07R
FREMONT        RAIN      62  58  87 SE3       30.04F
MILLARD        RAIN      64  61  93 NW6       30.07R
OFFUTT AFB     HVY RAIN  63  63 100 NE2       30.06S FOG
PLATTSMOUTH    LGT RAIN  62  60  92 N3        30.07S
WAHOO          LGT RAIN  62  59  90 SE3       30.05F
$$



USA.gov is the U.S. government's official web portal to all federal, state and local government web resources and services.